QPF
0.00 0.00 0.00 0.00 0.00 0.00 0.00 0.00 0.00 0.00 0.00 0.00 0.00 0.00 0.00 0.00 0.00 0.00 0.00 0.00 0.00 0.00 0.00 0.00 0.00 0.00 0.00 0.00 0.00 0.00 0.00 0.00 0.00 0.00 0.00 0.00 0.00 0.00 0.00 0.00 0.00 0.00 0.00
0.00 0.00 0.00 0.00 0.00 0.00 0.00 0.00 0.00 0.00 0.00 0.00 0.00 0.00 0.00 0.00 0.00 0.00 0.00 0.00 0.00 0.00 0.00 0.00 0.00 0.00 0.00 0.00 0.00 0.00 0.00 0.00 0.00 0.00 0.00 0.00 0.00 0.00 0.00 0.00 0.00 0.00 0.00
0.00 0.00 0.00 0.00 0.00 0.00 0.00 0.00 0.00 0.00 0.00 0.00 0.00 0.00 0.00 0.00 0.00 0.00 0.00 0.00 0.00 0.00 0.00 0.00 0.00 0.00 0.00 0.00 0.00 0.00 0.00 0.00 0.00 0.00 0.00 0.00 0.00 0.00 0.00 0.00 0.00 0.00 0.00
0.00 0.00 0.00 0.00 0.00 0.00 0.00 0.00 0.00 0.00 0.00 0.00 0.00 0.00 0.00 0.00 0.00 0.00 0.00 0.00 0.00 0.00 0.00 0.00 0.00 0.00 0.00 0.00 0.00 0.00 0.00 0.00 0.00 0.00 0.00 0.00 0.00 0.00 0.00 0.00 0.00 0.00 0.00
0.00 0.00 0.00 0.00 0.00 0.00 0.00 0.00 0.00 0.00 0.00 0.00 0.00 0.00 0.00 0.00 0.00 0.00 0.00 0.00 0.00 0.00 0.00 0.00 0.00 0.00 0.00 0.00 0.00 0.00 0.00 0.00 0.00 0.00 0.00 0.00 0.00 0.00 0.00 0.00 0.00 0.00 0.00
0.00 0.00 0.00 0.00 0.00 0.00 0.00 0.00 0.00 0.00 0.00 0.00 0.00 0.00 0.00 0.00 0.00 0.00 0.00 0.00 0.00 0.00 0.00 0.00 0.00 0.00 0.00 0.00 0.00 0.00 0.00 0.00 0.00 0.00 0.00 0.00 0.00 0.00 0.00 0.00 0.00 0.00 0.00
0.00 0.00 0.00 0.00 0.00 0.00 0.00 0.00 0.00 0.00 0.00 0.00 0.00 0.00 0.00 0.00 0.00 0.00 0.00 0.00 0.00 0.00 0.00 0.00 0.00 0.00 0.00 0.00 0.00 0.00 0.00 0.00 0.00 0.00 0.00 0.00 0.00 0.00 0.00 0.00 0.00 0.00 0.00
0.00 0.00 0.00 0.00 0.00 0.00 0.00 0.00 0.00 0.00 0.00 0.00 0.00 0.00 0.00 0.00 0.00 0.00 0.00 0.00 0.00 0.00 0.00 0.00 0.00 0.00 0.00 0.00 0.00 0.00 0.00 0.00 0.00 0.01 0.01 0.00 0.00 0.00 0.00 0.00 0.00 0.00 0.00
0.00 0.00 0.00 0.00 0.00 0.00 0.00 0.00 0.00 0.00 0.00 0.00 0.00 0.00 0.00 0.00 0.00 0.00 0.00 0.00 0.00 0.00 0.00 0.00 0.00 0.00 0.00 0.00 0.00 0.00 0.00 0.00 0.01 0.02 0.01 0.00 0.00 0.00 0.00 0.00 0.00 0.00 0.00
0.00 0.00 0.00 0.00 0.00 0.00 0.00 0.00 0.00 0.00 0.00 0.00 0.00 0.00 0.00 0.00 0.00 0.00 0.00 0.00 0.00 0.00 0.00 0.00 0.00 0.00 0.00 0.00 0.00 0.00 0.00 0.01 0.01 0.02 0.00 0.00 0.00 0.00 0.00 0.00 0.00 0.00 0.00
0.00 0.00 0.00 0.00 0.00 0.00 0.00 0.00 0.00 0.00 0.00 0.00 0.00 0.00 0.00 0.00 0.00 0.00 0.00 0.00 0.00 0.00 0.00 0.00 0.00 0.00 0.00 0.00 0.00 0.00 0.00 0.00 0.02 0.01 0.01 0.01 0.00 0.00 0.00 0.00 0.00 0.00 0.00
0.00 0.00 0.00 0.00 0.00 0.00 0.00 0.00 0.00 0.00 0.00 0.00 0.00 0.00 0.00 0.00 0.00 0.00 0.00 0.00 0.00 0.00 0.00 0.00 0.00 0.00 0.00 0.00 0.00 0.00 0.01 0.01 0.02 0.02 0.02 0.00 0.00 0.00 0.00 0.00 0.00 0.00 0.00
0.00 0.00 0.00 0.00 0.00 0.00 0.00 0.00 0.00 0.00 0.00 0.00 0.00 0.00 0.00 0.00 0.00 0.00 0.00 0.00 0.00 0.00 0.00 0.00 0.00 0.00 0.00 0.00 0.00 0.01 0.01 0.01 0.02 0.02 0.01 0.01 0.00 0.00 0.00 0.00 0.00 0.00 0.00
0.00 0.00 0.00 0.00 0.00 0.00 0.00 0.00 0.00 0.00 0.00 0.00 0.00 0.00 0.00 0.00 0.00 0.00 0.00 0.00 0.00 0.00 0.00 0.00 0.00 0.00 0.00 0.00 0.00 0.00 0.00 0.00 0.01 0.01 0.00 0.00 0.00 0.00 0.00 0.00 0.00 0.00 0.00
0.00 0.00 0.00 0.00 0.00 0.00 0.00 0.00 0.00 0.00 0.00 0.00 0.00 0.00 0.00 0.00 0.00 0.00 0.00 0.00 0.00 0.00 0.00 0.00 0.00 0.00 0.00 0.00 0.00 0.00 0.00 0.01 0.01 0.00 0.00 0.00 0.00 0.00 0.00 0.00 0.00 0.00 0.00
0.00 0.00 0.00 0.00 0.00 0.00 0.00 0.00 0.00 0.00 0.00 0.00 0.00 0.00 0.00 0.00 0.00 0.00 0.00 0.00 0.00 0.00 0.00 0.00 0.00 0.00 0.00 0.00 0.00 0.00 0.01 0.01 0.01 0.01 0.00 0.01 0.00 0.00 0.00 0.00 0.00 0.00 0.00
0.00 0.00 0.00 0.00 0.00 0.00 0.00 0.00 0.00 0.00 0.00 0.00 0.00 0.00 0.00 0.00 0.00 0.00 0.00 0.00 0.00 0.00 0.00 0.00 0.00 0.00 0.00 0.00 0.01 0.01 0.01 0.01 0.02 0.01 0.00 0.01 0.00 0.00 0.00 0.00 0.00 0.00 0.00
0.00 0.00 0.00 0.00 0.00 0.00 0.00 0.00 0.00 0.00 0.00 0.00 0.00 0.00 0.00 0.00 0.00 0.00 0.00 0.00 0.00 0.00 0.00 0.00 0.00 0.00 0.00 0.00 0.01 0.01 0.02 0.01 0.02 0.01 0.00 0.00 0.01 0.00 0.00 0.00 0.00 0.00 0.00
0.00 0.00 0.00 0.00 0.00 0.00 0.00 0.00 0.00 0.00 0.00 0.00 0.00 0.00 0.00 0.00 0.00 0.00 0.00 0.00 0.00 0.00 0.00 0.00 0.00 0.00 0.00 0.01 0.01 0.02 0.02 0.04 0.05 0.01 0.00 0.01 0.00 0.00 0.00 0.00 0.00 0.00 0.00
0.08 0.10 0.09 0.03 0.03 0.02 0.02 0.02 0.00 0.00 0.00 0.00 0.00 0.00 0.01 0.00 0.00 0.00 0.00 0.00 0.00 0.00 0.00 0.00 0.00 0.00 0.00 0.00 0.00 0.02 0.04 0.07 0.03 0.01 0.01 0.00 0.00 0.00 0.00 0.00 0.00 0.00 0.00
0.05 0.06 0.12 0.19 0.22 0.20 0.12 0.06 0.01 0.02 0.03 0.01 0.00 0.00 0.00 0.00 0.00 0.00 0.00 0.00 0.00 0.00 0.00 0.00 0.00 0.00 0.00 0.00 0.01 0.03 0.04 0.04 0.03 0.01 0.01 0.00 0.00 0.00 0.00 0.00 0.00 0.00 0.00
0.02 0.02 0.04 0.06 0.09 0.11 0.13 0.13 0.10 0.08 0.05 0.04 0.00 0.00 0.00 0.00 0.00 0.00 0.00 0.00 0.00 0.00 0.00 0.00 0.00 0.00 0.00 0.00 0.01 0.02 0.03 0.02 0.01 0.00 0.00 0.00 0.00 0.00 0.00 0.00 0.00 0.00 0.00
0.02 0.01 0.00 0.02 0.02 0.02 0.03 0.04 0.07 0.09 0.05 0.02 0.01 0.00 0.00 0.00 0.00 0.00 0.00 0.00 0.00 0.00 0.00 0.00 0.00 0.00 0.00 0.00 0.00 0.00 0.01 0.00 0.00 0.00 0.00 0.00 0.00 0.00 0.00 0.00 0.00 0.00 0.00
0.05 0.06 0.04 0.02 0.00 0.00 0.00 0.00 0.00 0.00 0.01 0.01 0.01 0.01 0.00 0.00 0.00 0.00 0.00 0.00 0.00 0.00 0.00 0.00 0.00 0.00 0.00 0.00 0.00 0.00 0.00 0.00 0.00 0.00 0.00 0.00 0.00 0.00 0.00 0.00 0.00 0.00 0.00
0.00 0.01 0.05 0.04 0.02 0.01 0.00 0.00 0.00 0.00 0.00 0.00 0.00 0.00 0.00 0.00 0.00 0.00 0.00 0.00 0.00 0.00 0.00 0.00 0.00 0.00 0.00 0.00 0.00 0.00 0.00 0.00 0.00 0.00 0.00 0.00 0.00 0.00 0.00 0.00 0.00 0.00 0.00
0.00 0.00 0.00 0.00 0.00 0.00 0.00 0.00 0.00 0.00 0.00 0.00 0.00 0.00 0.00 0.01 0.00 0.00 0.00 0.00 0.00 0.00 0.00 0.00 0.00 0.00 0.00 0.00 0.00 0.00 0.00 0.00 0.00 0.00 0.00 0.00 0.00 0.00 0.00 0.00 0.00 0.00 0.00
MSLP
1011.13 1011.91 1012.61 1013.20 1013.72 1014.21 1014.40 1014.83 1015.24 1015.66 1015.91 1016.07 1016.28 1016.37 1016.55 1016.76 1016.97 1017.36 1017.60 1017.67 1018.13 1018.13 1018.33 1018.51 1018.69 1018.81 1018.34 1018.20 1018.19 1018.14 1018.07 1018.18 1018.08 1017.38 1017.71 1018.07 1018.54 1018.19 1018.01 1018.17 1018.01 1017.85 1017.48
1010.19 1011.16 1011.91 1012.56 1013.01 1013.41 1013.85 1014.13 1014.64 1015.09 1015.48 1015.75 1015.93 1016.08 1016.25 1016.41 1016.55 1016.86 1017.10 1017.04 1017.47 1017.60 1017.74 1018.00 1018.14 1018.21 1018.43 1018.17 1017.97 1018.11 1017.74 1017.98 1018.12 1017.58 1017.66 1017.86 1017.98 1018.04 1018.21 1018.24 1018.02 1017.45 1017.15
1009.49 1010.38 1011.02 1011.61 1012.18 1012.55 1012.96 1013.48 1013.95 1014.39 1014.77 1015.04 1015.43 1015.62 1015.78 1015.96 1016.12 1016.29 1016.55 1016.62 1016.67 1016.89 1017.00 1017.24 1017.42 1017.61 1017.71 1017.45 1017.70 1017.41 1017.59 1017.96 1017.73 1017.82 1017.35 1016.89 1017.21 1017.69 1017.56 1017.49 1017.53 1017.21 1016.83
1008.67 1009.44 1010.09 1010.68 1011.20 1011.71 1012.25 1012.75 1013.23 1013.69 1014.10 1014.36 1014.69 1014.99 1015.22 1015.46 1015.64 1015.71 1015.81 1016.04 1016.09 1016.09 1016.37 1016.57 1016.69 1016.79 1016.87 1017.05 1017.21 1016.99 1016.87 1016.95 1017.47 1017.73 1016.89 1017.27 1017.55 1017.31 1017.38 1017.07 1016.54 1016.17 1015.97
1007.78 1008.45 1008.95 1009.73 1010.49 1011.01 1011.41 1011.97 1012.49 1012.99 1013.35 1013.71 1014.02 1014.29 1014.51 1014.77 1014.92 1015.07 1015.15 1015.17 1015.24 1015.26 1015.42 1015.66 1015.86 1015.86 1016.05 1015.82 1015.44 1015.68 1016.49 1017.39 1017.17 1016.96 1016.91 1016.93 1016.88 1017.03 1016.99 1016.87 1016.83 1016.35 1016.07
1006.70 1007.39 1008.13 1008.83 1009.47 1010.11 1010.72 1011.13 1011.73 1012.21 1012.68 1013.01 1013.23 1013.49 1013.63 1013.75 1013.84 1014.39 1014.69 1014.36 1014.35 1014.37 1014.42 1014.41 1014.68 1015.00 1015.03 1015.02 1015.30 1015.76 1016.20 1016.37 1016.61 1016.24 1016.32 1016.66 1017.13 1017.56 1017.24 1016.71 1016.90 1016.62 1015.85
1005.97 1006.67 1007.34 1007.95 1008.45 1009.05 1009.81 1010.40 1010.76 1011.34 1011.92 1012.26 1012.49 1012.73 1012.81 1012.99 1013.35 1013.69 1013.99 1014.15 1013.81 1013.47 1013.43 1013.47 1013.22 1013.00 1013.74 1014.30 1015.42 1015.45 1015.88 1016.17 1016.26 1016.52 1016.98 1017.08 1016.91 1017.10 1017.61 1017.18 1016.72 1016.81 1016.26
1005.17 1005.56 1006.25 1007.01 1007.57 1008.15 1008.78 1009.34 1009.89 1010.42 1010.93 1011.33 1011.61 1011.88 1012.11 1012.13 1012.53 1012.97 1013.21 1013.45 1013.22 1012.91 1012.60 1012.35 1012.04 1012.11 1012.60 1013.85 1014.11 1014.68 1015.31 1015.59 1016.04 1016.46 1016.62 1016.75 1017.01 1016.88 1017.37 1017.48 1017.03 1016.79 1016.70
1003.63 1004.32 1005.00 1005.63 1006.41 1007.21 1007.77 1008.32 1008.87 1009.42 1009.83 1010.27 1010.65 1010.88 1011.09 1011.20 1011.55 1012.14 1012.62 1012.51 1012.07 1011.76 1011.55 1011.30 1011.17 1011.32 1011.97 1012.65 1013.52 1013.45 1014.09 1014.65 1015.05 1016.02 1016.58 1016.69 1016.78 1017.33 1017.30 1017.46 1016.72 1015.84 1014.98
1002.48 1003.37 1004.27 1004.97 1005.58 1006.11 1006.66 1007.36 1007.98 1008.49 1008.75 1009.06 1009.41 1009.77 1010.04 1010.21 1010.67 1011.12 1011.63 1011.37 1010.73 1010.35 1010.27 1010.06 1010.31 1010.95 1011.45 1011.99 1012.68 1013.14 1013.51 1013.95 1014.64 1015.59 1016.26 1016.37 1016.48 1016.32 1016.84 1016.77 1016.31 1016.03 1015.34
1002.23 1002.86 1003.55 1004.21 1004.76 1005.25 1005.83 1006.35 1006.99 1007.56 1007.80 1008.10 1008.35 1008.60 1009.06 1009.31 1009.69 1010.12 1010.57 1010.52 1009.71 1009.15 1008.82 1008.50 1008.63 1009.36 1010.56 1011.51 1012.35 1012.59 1012.29 1013.04 1013.93 1014.60 1015.17 1015.28 1015.14 1015.19 1015.25 1015.46 1015.35 1015.15 1015.03
1001.83 1002.45 1002.89 1003.46 1003.96 1004.41 1005.16 1005.71 1006.19 1006.66 1007.01 1007.28 1007.38 1007.57 1007.62 1008.31 1008.72 1009.14 1009.62 1009.81 1009.15 1008.66 1007.93 1007.56 1007.80 1008.60 1009.64 1010.69 1011.57 1012.23 1012.88 1013.31 1013.57 1014.23 1014.65 1014.49 1014.07 1014.13 1013.47 1013.94 1014.69 1015.05 1014.55
1001.52 1002.03 1002.48 1003.03 1003.41 1003.78 1004.22 1004.93 1005.44 1005.90 1006.01 1006.01 1006.01 1006.15 1006.20 1006.43 1006.96 1007.78 1008.60 1009.00 1008.81 1009.18 1008.28 1008.11 1008.70 1009.08 1009.73 1010.75 1011.51 1011.95 1012.42 1013.12 1013.53 1013.81 1014.05 1014.14 1013.25 1013.36 1013.41 1013.85 1014.48 1014.81 1014.37
1001.20 1001.71 1002.12 1002.43 1002.78 1003.19 1003.49 1003.76 1004.11 1004.12 1004.58 1004.86 1004.57 1004.55 1004.67 1004.96 1005.18 1005.59 1007.38 1008.05 1008.58 1008.93 1008.95 1008.78 1008.85 1009.51 1009.85 1010.51 1011.51 1011.91 1012.03 1012.32 1012.50 1013.14 1013.43 1013.39 1013.28 1013.27 1013.52 1013.69 1014.04 1013.67 1013.03
1000.90 1001.23 1001.47 1001.58 1002.02 1002.30 1002.60 1002.44 1002.69 1002.85 1002.93 1003.39 1003.68 1003.75 1003.69 1003.86 1004.09 1004.51 1005.21 1006.07 1006.23 1006.35 1007.36 1008.46 1009.12 1009.55 1010.12 1010.48 1010.74 1011.12 1011.51 1011.83 1012.03 1012.43 1012.95 1013.05 1013.09 1012.78 1012.87 1013.08 1012.95 1013.01 1012.53
1000.37 1000.37 1000.24 1000.45 1000.79 1001.42 1001.41 1001.95 1002.19 1002.44 1002.76 1002.90 1003.11 1003.65 1002.63 1003.37 1004.28 1004.71 1005.17 1005.75 1006.33 1006.88 1006.89 1006.76 1008.03 1008.58 1008.88 1009.01 1009.47 1010.02 1010.44 1010.91 1011.23 1011.97 1012.49 1012.90 1012.76 1012.11 1012.02 1012.60 1013.07 1012.51 1012.30
1000.36 999.58 999.62 1000.07 1000.05 1000.11 1000.54 1000.70 1000.97 1001.81 1002.37 1003.07 1003.31 1003.46 1003.73 1003.91 1004.73 1005.04 1005.24 1005.79 1006.55 1007.05 1006.55 1005.96 1006.51 1007.22 1007.43 1007.85 1008.55 1008.96 1009.53 1010.16 1010.95 1011.75 1011.97 1012.09 1011.97 1011.63 1011.91 1012.32 1012.47 1011.85 1011.77
1000.32 1000.20 999.60 999.45 999.65 999.65 999.80 1000.07 1000.31 1000.48 1000.99 1001.73 1002.37 1002.97 1003.45 1003.88 1004.40 1005.13 1005.68 1006.22 1006.69 1006.85 1005.82 1005.21 1005.36 1006.18 1006.70 1007.22 1007.74 1008.44 1009.44 1010.17 1010.77 1011.24 1011.40 1011.45 1011.39 1011.28 1011.45 1011.99 1011.65 1011.33 1011.38
1002.27 1001.80 1000.45 999.66 999.51 999.67 999.58 999.61 999.75 999.73 1000.02 1000.08 1000.61 1002.47 1003.13 1003.89 1004.37 1004.79 1005.09 1004.93 1004.12 1003.83 1004.09 1004.17 1004.39 1005.06 1005.74 1006.47 1007.05 1007.97 1008.64 1009.50 1010.13 1010.52 1010.55 1010.75 1010.53 1010.46 1010.75 1011.13 1011.07 1011.33 1011.71
1003.16 1002.65 1002.26 1001.77 1000.88 1000.11 999.99 999.78 999.51 999.56 999.74 999.96 1000.07 1000.27 1001.85 1003.22 1003.63 1003.93 1004.31 1003.80 1003.17 1002.47 1002.35 1003.14 1003.62 1004.42 1005.09 1005.78 1006.46 1007.27 1008.25 1009.16 1009.56 1009.68 1009.71 1010.02 1009.71 1009.67 1010.23 1010.55 1010.49 1010.72 1010.85
1004.27 1003.17 1003.40 1003.37 1003.05 1002.84 1002.69 1002.04 1001.58 1000.56 1000.34 999.80 999.75 999.90 1000.73 1001.39 1000.94 1001.14 1001.93 1002.23 1002.01 1001.80 1002.01 1002.49 1003.06 1003.78 1004.66 1005.49 1006.19 1006.78 1007.45 1007.95 1008.64 1008.94 1009.18 1009.17 1008.81 1009.51 1010.04 1010.29 1010.21 1010.53 1010.74
1004.87 1004.28 1004.19 1004.57 1004.24 1004.23 1004.14 1003.54 1003.12 1002.96 1001.60 1000.51 999.26 1000.67 1000.96 1001.34 1000.76 1000.35 1000.29 1000.72 1001.07 1001.50 1001.75 1002.29 1002.78 1003.56 1004.32 1004.91 1005.38 1006.09 1006.35 1006.96 1007.71 1008.18 1008.19 1007.61 1008.58 1009.25 1009.73 1009.69 1009.99 1010.36 1010.57
1006.53 1006.20 1005.76 1005.68 1005.94 1005.79 1005.49 1005.36 1004.83 1005.35 1003.45 1002.76 1002.81 1002.02 1001.30 1000.96 1000.93 1000.84 1000.61 1000.55 1000.98 1001.69 1002.21 1002.57 1003.10 1003.66 1004.11 1004.41 1004.69 1004.94 1004.89 1005.89 1006.52 1007.10 1006.79 1007.16 1008.27 1008.95 1008.94 1009.29 1009.72 1010.11 1010.39
1007.57 1008.15 1006.86 1006.82 1007.86 1006.51 1006.63 1006.98 1007.20 1006.48 1005.74 1005.11 1004.45 1004.37 1003.70 1003.11 1002.61 1002.39 1002.14 1001.97 1002.07 1002.49 1002.68 1002.84 1003.10 1003.30 1003.49 1003.77 1004.15 1004.29 1004.87 1005.12 1005.65 1006.13 1006.13 1007.01 1007.75 1008.17 1008.61 1008.91 1009.37 1009.73 1010.20
1007.11 1007.25 1007.33 1007.54 1008.79 1008.35 1007.57 1007.73 1007.46 1008.49 1008.20 1007.23 1006.42 1006.11 1005.57 1004.66 1004.18 1003.54 1003.35 1002.91 1002.85 1002.86 1002.63 1002.32 1002.48 1002.75 1002.79 1003.19 1003.69 1004.25 1004.51 1004.87 1004.96 1005.29 1006.10 1006.95 1007.29 1007.84 1008.27 1008.48 1009.07 1009.76 1010.04
1009.17 1008.98 1009.22 1008.57 1008.46 1008.45 1008.84 1009.10 1009.76 1010.00 1008.01 1006.86 1007.28 1007.29 1006.92 1006.49 1006.03 1005.02 1004.42 1003.57 1003.15 1002.99 1002.66 1002.27 1002.44 1002.61 1002.59 1002.72 1003.37 1003.75 1004.51 1004.93 1004.99 1005.54 1006.07 1006.34 1006.73 1007.39 1007.88 1008.29 1009.09 1009.53 1010.18
Thickness
5822 5819 5816 5814 5814 5813 5813 5811 5808 5806 5805 5805 5804 5804 5803 5802 5801 5797 5796 5795 5790 5789 5786 5782 5777 5775 5776 5773 5770 5765 5760 5752 5739 5744 5738 5729 5720 5717 5713 5706 5701 5694 5689
5828 5822 5818 5817 5817 5817 5816 5816 5813 5809 5808 5806 5806 5805 5804 5804 5804 5801 5798 5800 5794 5792 5790 5786 5783 5780 5773 5772 5769 5763 5761 5754 5743 5735 5732 5722 5719 5712 5705 5699 5693 5688 5683
5829 5824 5821 5821 5820 5821 5821 5820 5818 5815 5812 5811 5808 5807 5806 5806 5805 5806 5803 5801 5800 5798 5796 5792 5788 5783 5777 5777 5770 5767 5760 5752 5744 5733 5727 5725 5719 5709 5704 5699 5689 5683 5677
5831 5827 5825 5824 5824 5825 5824 5823 5821 5819 5816 5815 5813 5811 5809 5808 5808 5808 5808 5804 5803 5803 5800 5797 5793 5788 5784 5779 5773 5769 5764 5756 5745 5732 5731 5718 5712 5707 5699 5692 5689 5686 5676
5833 5831 5831 5829 5827 5826 5827 5826 5825 5822 5820 5818 5815 5815 5814 5812 5811 5811 5811 5810 5808 5807 5806 5803 5798 5795 5791 5789 5788 5780 5766 5747 5744 5738 5726 5718 5708 5701 5693 5687 5678 5673 5665
5837 5835 5835 5832 5830 5829 5828 5829 5826 5824 5822 5821 5819 5817 5817 5818 5818 5813 5811 5814 5813 5811 5809 5810 5806 5800 5795 5792 5785 5774 5767 5755 5744 5740 5730 5718 5703 5694 5691 5679 5669 5659 5653
5836 5835 5834 5834 5833 5832 5830 5828 5828 5826 5824 5822 5821 5821 5820 5821 5818 5814 5812 5812 5814 5816 5815 5813 5813 5814 5805 5797 5781 5775 5765 5756 5747 5736 5720 5711 5704 5694 5679 5672 5662 5651 5644
5836 5837 5837 5835 5835 5834 5831 5830 5829 5828 5825 5824 5823 5823 5823 5825 5821 5817 5814 5815 5815 5817 5819 5819 5818 5816 5812 5796 5788 5778 5767 5757 5744 5732 5722 5711 5699 5690 5675 5664 5657 5645 5637
5846 5845 5843 5842 5838 5835 5832 5832 5832 5829 5828 5826 5826 5825 5825 5827 5824 5818 5814 5819 5821 5822 5823 5824 5822 5820 5813 5801 5788 5782 5772 5760 5749 5732 5720 5710 5698 5684 5672 5658 5653 5651 5646
5851 5848 5844 5841 5838 5835 5835 5833 5832 5830 5829 5830 5828 5829 5830 5829 5826 5821 5817 5822 5826 5827 5828 5829 5825 5820 5810 5800 5790 5780 5770 5760 5748 5733 5718 5706 5696 5686 5671 5658 5649 5642 5638
5848 5846 5843 5841 5838 5837 5835 5835 5832 5828 5829 5829 5829 5831 5830 5831 5830 5823 5818 5823 5829 5833 5833 5836 5837 5827 5813 5798 5788 5783 5777 5765 5750 5736 5721 5711 5702 5690 5680 5665 5655 5646 5635
5842 5839 5838 5838 5836 5835 5832 5830 5830 5828 5826 5826 5828 5828 5833 5832 5829 5826 5820 5818 5829 5832 5836 5841 5840 5827 5815 5801 5789 5779 5767 5757 5748 5733 5720 5712 5706 5695 5692 5676 5657 5643 5638
5835 5833 5833 5831 5830 5830 5828 5825 5823 5824 5825 5828 5830 5830 5834 5838 5837 5829 5822 5818 5820 5820 5831 5831 5823 5815 5806 5796 5784 5775 5766 5754 5743 5731 5720 5709 5708 5698 5686 5671 5656 5641 5637
5825 5824 5825 5825 5825 5825 5827 5827 5826 5831 5830 5830 5834 5836 5839 5839 5842 5844 5830 5822 5814 5815 5815 5819 5817 5808 5802 5793 5779 5771 5766 5757 5748 5732 5720 5712 5705 5694 5680 5667 5653 5648 5642
5820 5819 5820 5823 5821 5822 5823 5828 5832 5837 5839 5836 5837 5838 5836 5835 5842 5843 5839 5830 5828 5830 5821 5813 5806 5799 5792 5786 5779 5772 5764 5754 5745 5733 5718 5709 5698 5693 5679 5668 5656 5649 5642
5815 5817 5821 5823 5824 5821 5823 5821 5826 5828 5829 5832 5833 5834 5845 5840 5834 5831 5828 5822 5817 5816 5820 5819 5807 5800 5796 5792 5784 5775 5766 5756 5745 5729 5716 5703 5696 5694 5682 5668 5652 5650 5641
5807 5816 5818 5814 5818 5820 5820 5821 5822 5824 5821 5819 5821 5823 5824 5828 5823 5819 5819 5813 5808 5806 5813 5817 5810 5803 5799 5793 5784 5777 5767 5755 5739 5724 5714 5704 5698 5693 5678 5666 5654 5651 5643
5801 5800 5810 5813 5814 5817 5819 5819 5821 5823 5825 5825 5821 5819 5817 5815 5813 5809 5805 5803 5806 5800 5810 5813 5811 5803 5796 5789 5781 5771 5758 5744 5732 5721 5713 5705 5698 5690 5678 5664 5660 5652 5643
5773 5779 5796 5807 5811 5810 5815 5817 5818 5821 5822 5826 5830 5813 5808 5803 5801 5799 5800 5812 5816 5818 5814 5812 5812 5804 5796 5787 5780 5766 5757 5742 5728 5720 5713 5703 5699 5691 5679 5667 5658 5643 5635
5755 5761 5767 5776 5788 5799 5802 5806 5811 5814 5816 5818 5821 5824 5814 5806 5808 5807 5802 5806 5813 5820 5821 5813 5809 5801 5792 5784 5775 5765 5750 5735 5726 5721 5713 5703 5699 5691 5678 5666 5662 5652 5643
5735 5749 5749 5751 5758 5763 5766 5776 5785 5798 5799 5810 5815 5821 5817 5813 5819 5820 5814 5810 5812 5814 5812 5808 5802 5795 5786 5776 5767 5758 5749 5736 5726 5718 5710 5703 5700 5685 5674 5664 5658 5651 5642
5722 5731 5734 5732 5738 5741 5745 5756 5763 5766 5781 5793 5812 5802 5795 5803 5809 5813 5815 5811 5807 5805 5804 5798 5794 5786 5777 5770 5762 5752 5744 5735 5724 5715 5710 5709 5694 5682 5669 5663 5655 5648 5640
5694 5701 5708 5712 5711 5716 5724 5727 5735 5730 5751 5760 5766 5779 5792 5795 5796 5796 5799 5799 5796 5791 5787 5784 5779 5773 5768 5763 5756 5750 5747 5734 5724 5716 5714 5705 5690 5677 5670 5661 5652 5646 5639
5669 5664 5682 5688 5682 5698 5702 5703 5704 5712 5723 5731 5741 5743 5753 5762 5767 5769 5771 5774 5773 5769 5768 5767 5764 5763 5761 5756 5749 5744 5737 5731 5722 5715 5711 5698 5687 5678 5668 5659 5652 5646 5637
5664 5664 5661 5663 5660 5665 5677 5681 5689 5681 5686 5699 5710 5715 5724 5735 5739 5745 5747 5753 5754 5752 5754 5758 5756 5755 5754 5747 5740 5734 5729 5724 5719 5713 5703 5691 5684 5675 5666 5659 5650 5641 5635
5631 5635 5634 5644 5650 5653 5652 5653 5648 5650 5676 5690 5687 5690 5697 5702 5708 5719 5725 5735 5739 5739 5741 5745 5743 5742 5742 5739 5731 5726 5719 5713 5709 5702 5693 5688 5681 5672 5664 5654 5644 5638 5629